When you browse on this site, cookies collect data to enhance your experience and personalize the content and advertising you see.
Visit our Privacy Policy to learn more. By continuing to use the site, you agree to this use of cookies and data.
  • In Romania
  • List of Countries
  • For 7 days
  • Water Temperature
  • Satellite Maps
  • Weather Map
  • Weather Widgets
  • user-avatar
    Login

    Hourly Weather Gumla

    Today, 25 April, Thursday

    Time Temperature Precipitation Wind Pressure Humidity
    00:00 +30°C° 0 mm 1 mps 703 mmHg 28%
    01:00 +29°C° 0 mm 1 mps 703 mmHg 30%
    02:00 +29°C° 0 mm 1 mps 703 mmHg 32%
    03:00 +28°C° 0 mm 1 mps 702 mmHg 33%
    04:00 +28°C° 0 mm 1 mps 702 mmHg 36%
    05:00 +27°C° 0 mm 1 mps 703 mmHg 38%
    06:00 +27°C° 0 mm 1 mps 703 mmHg 41%
    07:00 +29°C° 0 mm 1 mps 703 mmHg 39%
    08:00 +30°C° 0 mm 1 mps 704 mmHg 37%
    09:00 +32°C° 0 mm 1 mps 704 mmHg 36%
    10:00 +34°C° 0 mm 1 mps 705 mmHg 30%
    11:00 +37°C° 0 mm 2 mps 705 mmHg 25%
    12:00 +39°C° 0 mm 2 mps 705 mmHg 19%
    13:00 +40°C° 0 mm 3 mps 704 mmHg 18%
    14:00 +41°C° 0 mm 4 mps 703 mmHg 17%
    15:00 +42°C° 0 mm 5 mps 703 mmHg 16%
    16:00 +41°C° 0 mm 4 mps 702 mmHg 16%
    17:00 +41°C° 0 mm 4 mps 702 mmHg 17%
    18:00 +40°C° 0 mm 4 mps 702 mmHg 18%
    19:00 +38°C° 0 mm 3 mps 702 mmHg 19%
    20:00 +36°C° 0 mm 2 mps 702 mmHg 21%
    21:00 +35°C° 0 mm 2 mps 702 mmHg 23%
    22:00 +34°C° 0 mm 2 mps 702 mmHg 25%
    23:00 +32°C° 0 mm 2 mps 703 mmHg 27%

    Tomorrow, 26 April, Friday

    Time Temperature Precipitation Wind Pressure Humidity
    00:00 +32°C° 0 mm 1 mps 703 mmHg 29%
    01:00 +31°C° 0 mm 2 mps 702 mmHg 34%
    02:00 +30°C° 0 mm 2 mps 702 mmHg 38%
    03:00 +29°C° 0 mm 2 mps 701 mmHg 42%
    04:00 +28°C° 0 mm 2 mps 701 mmHg 48%
    05:00 +28°C° 0 mm 1 mps 701 mmHg 53%
    06:00 +27°C° 0 mm 1 mps 701 mmHg 59%
    07:00 +29°C° 0 mm 2 mps 702 mmHg 52%
    08:00 +33°C° 0 mm 3 mps 703 mmHg 46%
    09:00 +35°C° 0 mm 3 mps 703 mmHg 39%
    10:00 +37°C° 0 mm 3 mps 703 mmHg 32%
    11:00 +39°C° 0 mm 3 mps 703 mmHg 26%
    12:00 +40°C° 0 mm 3 mps 704 mmHg 19%
    13:00 +42°C° 0 mm 3 mps 703 mmHg 17%
    14:00 +41°C° 0 mm 2 mps 702 mmHg 15%
    15:00 +41°C° 0 mm 2 mps 701 mmHg 13%
    16:00 +41°C° 0 mm 2 mps 701 mmHg 14%
    17:00 +40°C° 0 mm 1 mps 701 mmHg 15%
    18:00 +40°C° 0 mm 1 mps 700 mmHg 16%
    19:00 +37°C° 0 mm 1 mps 701 mmHg 17%
    20:00 +36°C° 0 mm 1 mps 701 mmHg 18%
    21:00 +35°C° 0 mm 1 mps 701 mmHg 18%
    22:00 +34°C° 0 mm 1 mps 701 mmHg 20%
    23:00 +33°C° 0 mm 1 mps 701 mmHg 21%

    Day after tomorrow, 27 April, Saturday

    Time Temperature Precipitation Wind Pressure Humidity
    00:00 +32°C° 0 mm 1 mps 701 mmHg 22%
    01:00 +31°C° 0 mm 2 mps 701 mmHg 25%
    02:00 +30°C° 0 mm 2 mps 700 mmHg 29%
    03:00 +29°C° 0 mm 2 mps 700 mmHg 33%
    04:00 +29°C° 0 mm 2 mps 700 mmHg 39%
    05:00 +28°C° 0 mm 2 mps 700 mmHg 45%
    06:00 +27°C° 0 mm 2 mps 700 mmHg 51%
    07:00 +30°C° 0 mm 2 mps 701 mmHg 45%
    08:00 +34°C° 0 mm 3 mps 702 mmHg 39%
    09:00 +36°C° 0 mm 3 mps 703 mmHg 33%
    10:00 +38°C° 0 mm 3 mps 703 mmHg 26%
    11:00 +40°C° 0 mm 3 mps 703 mmHg 18%
    12:00 +44°C° 0 mm 3 mps 702 mmHg 11%
    13:00 +44°C° 0 mm 3 mps 702 mmHg 10%
    14:00 +45°C° 0 mm 3 mps 701 mmHg 9%
    15:00 +45°C° 0 mm 4 mps 700 mmHg 8%
    16:00 +45°C° 0 mm 3 mps 700 mmHg 9%
    17:00 +44°C° 0 mm 3 mps 699 mmHg 9%
    18:00 +43°C° 0 mm 3 mps 699 mmHg 10%
    19:00 +40°C° 0 mm 3 mps 700 mmHg 11%
    20:00 +39°C° 0 mm 2 mps 700 mmHg 12%
    21:00 +37°C° 0 mm 2 mps 700 mmHg 13%
    22:00 +36°C° 0 mm 2 mps 700 mmHg 14%
    23:00 +35°C° 0 mm 2 mps 701 mmHg 16%

    28 April, Sunday

    Time Temperature Precipitation Wind Pressure Humidity
    00:00 +34°C° 0 mm 2 mps 701 mmHg 18%
    01:00 +32°C° 0 mm 2 mps 700 mmHg 28%
    02:00 +31°C° 0 mm 2 mps 700 mmHg 38%
    03:00 +30°C° 0 mm 2 mps 699 mmHg 48%
    04:00 +29°C° 0 mm 2 mps 699 mmHg 52%
    05:00 +28°C° 0 mm 2 mps 700 mmHg 57%
    06:00 +28°C° 0 mm 2 mps 700 mmHg 61%
    07:00 +30°C° 0 mm 2 mps 701 mmHg 53%
    08:00 +32°C° 0 mm 2 mps 702 mmHg 44%
    09:00 +36°C° 0 mm 3 mps 703 mmHg 36%
    10:00 +38°C° 0 mm 3 mps 703 mmHg 27%
    11:00 +40°C° 0 mm 3 mps 703 mmHg 18%
    12:00 +43°C° 0 mm 3 mps 702 mmHg 9%
    13:00 +44°C° 0 mm 3 mps 702 mmHg 7%
    14:00 +44°C° 0 mm 3 mps 701 mmHg 6%
    15:00 +45°C° 0 mm 3 mps 700 mmHg 5%
    16:00 +44°C° 0 mm 3 mps 700 mmHg 6%
    17:00 +43°C° 0 mm 3 mps 700 mmHg 7%
    18:00 +43°C° 0 mm 3 mps 699 mmHg 7%
    19:00 +40°C° 0 mm 2 mps 700 mmHg 8%
    20:00 +38°C° 0 mm 2 mps 700 mmHg 9%
    21:00 +36°C° 0 mm 2 mps 701 mmHg 11%
    22:00 +35°C° 0 mm 2 mps 700 mmHg 16%
    23:00 +34°C° 0 mm 3 mps 700 mmHg 21%

    29 April, Monday

    Time Temperature Precipitation Wind Pressure Humidity
    00:00 +33°C° 0 mm 3 mps 700 mmHg 26%
    01:00 +31°C° 0 mm 3 mps 700 mmHg 41%
    02:00 +30°C° 0 mm 3 mps 700 mmHg 55%
    03:00 +29°C° 0 mm 3 mps 699 mmHg 70%
    04:00 +28°C° 0 mm 3 mps 700 mmHg 71%
    05:00 +28°C° 0 mm 3 mps 700 mmHg 73%
    06:00 +27°C° 0 mm 3 mps 700 mmHg 75%
    07:00 +29°C° 0 mm 4 mps 701 mmHg 65%
    08:00 +33°C° 0 mm 4 mps 702 mmHg 56%
    09:00 +35°C° 0 mm 5 mps 703 mmHg 46%
    10:00 +37°C° 0 mm 4 mps 703 mmHg 36%
    11:00 +41°C° 0 mm 4 mps 702 mmHg 26%
    12:00 +43°C° 0 mm 3 mps 702 mmHg 15%
    13:00 +44°C° 0 mm 3 mps 702 mmHg 13%
    14:00 +44°C° 0 mm 3 mps 701 mmHg 11%
    15:00 +45°C° 0 mm 3 mps 700 mmHg 9%
    16:00 +45°C° 0 mm 3 mps 700 mmHg 9%
    17:00 +43°C° 0 mm 2 mps 700 mmHg 8%
    18:00 +43°C° 0 mm 2 mps 699 mmHg 8%
    19:00 +40°C° 0 mm 2 mps 700 mmHg 9%
    20:00 +37°C° 0 mm 1 mps 700 mmHg 11%
    21:00 +35°C° 0 mm 1 mps 700 mmHg 12%
    22:00 +35°C° 0 mm 2 mps 700 mmHg 22%
    23:00 +34°C° 0 mm 2 mps 700 mmHg 31%

    30 April, Tuesday

    Time Temperature Precipitation Wind Pressure Humidity
    00:00 +33°C° 0 mm 3 mps 700 mmHg 41%
    01:00 +31°C° 0 mm 3 mps 700 mmHg 45%
    02:00 +32°C° 0 mm 4 mps 699 mmHg 49%
    03:00 +30°C° 0 mm 4 mps 699 mmHg 53%
    04:00 +30°C° 0 mm 4 mps 700 mmHg 55%
    05:00 +29°C° 0 mm 4 mps 700 mmHg 56%
    06:00 +29°C° 0 mm 4 mps 700 mmHg 58%
    07:00 +32°C° 0 mm 5 mps 701 mmHg 52%
    08:00 +34°C° 0 mm 6 mps 701 mmHg 46%
    09:00 +36°C° 0 mm 7 mps 702 mmHg 40%
    10:00 +39°C° 0 mm 7 mps 702 mmHg 32%
    11:00 +42°C° 0 mm 6 mps 702 mmHg 25%
    12:00 +45°C° 0 mm 5 mps 701 mmHg 17%
    13:00 +44°C° 0 mm 4 mps 701 mmHg 16%
    14:00 +44°C° 0 mm 4 mps 700 mmHg 15%
    15:00 +44°C° 0 mm 3 mps 699 mmHg 13%
    16:00 +43°C° 0 mm 3 mps 699 mmHg 14%
    17:00 +42°C° 0 mm 3 mps 699 mmHg 15%
    18:00 +42°C° 0 mm 3 mps 698 mmHg 16%
    19:00 +40°C° 0 mm 3 mps 699 mmHg 18%
    20:00 +39°C° 0 mm 3 mps 699 mmHg 19%
    21:00 +38°C° 0 mm 3 mps 700 mmHg 21%
    22:00 +36°C° 0 mm 4 mps 699 mmHg 30%
    23:00 +35°C° 0 mm 5 mps 699 mmHg 39%
    Show more